www.pogodaiklimat.ru

Погода и климат >> Архив погоды >> Индия >> Телингана >> Хайдарабад


ПОГОДА в Хайдарабаде

  • Прогноз погоды в Хайдарабаде
  • Монитор погоды в Хайдарабаде

АРХИВ ПОГОДЫ в Хайдарабаде

Время (UTC), дата Ветер
(напр.,м/с)
 
Видим.   Явления Облачность Т
(С)
Тd
(С)
f
(%)
Тe
(С)
Тes
(С)
Комфортность P
(гПа)
Po
(гПа)
Тmin
(С)
Tmax
(С)
R
(мм)
R24
(мм)
S
(см)
06 9.01 штиль 0 10 км ясно +26.0 +7.2 30 +26 +43 жарко 1015.8 955.3
09 9.01 штиль 0 10 км ясно +29.4 +5.7 22 +28 +40 жарко 1011.6 952.2
12 9.01 штиль 0 10 км ясно +27.0 +7.2 28 +27 +27 жарко 1011.9 951.9 +29.8
15 9.01 штиль 0 4000 м мгла 3/0
[Ci fib]
+20.6 +9.2 48 +22 +22 комфорт 1015.4 954.0
18 9.01 штиль 0 4000 м мгла 3/0
[Ci fib]
+16.4 +9.5 64 +16 +16 1016.5 954.2
21 9.01 штиль 0 2000 м мгла 3/0
[Ci fib]
+13.8 +9.3 74 +13 +13 1015.8 953.0
00 10.01 штиль 0 2000 м дымка 3/0
[Ci fib]
+12.4 +8.2 76 +12 +12 1015.0 952.0
03 10.01 штиль 0 4000 м мгла 3/0
[Ci fib]
+16.0 +9.8 67 +16 +20 1018.0 955.4 +10.9 +29.8
06 10.01 ЮВ 2 10 км ясно +25.0 +10.1 39 +26 +40 жарко 1015.2 954.7
09 10.01 СЗ 2 10 км ясно +28.2 +9.6 31 +28 +38 жарко 1011.4 951.8
12 10.01 ЮВ 2 10 км 1/0
[Ci fib]
+26.0 +9.2 35 +26 +27 жарко 1012.0 951.8 +29.0
15 10.01 штиль 0 4000 м мгла 3/0
[Ci fib]
+22.6 +12.5 53 +25 +25 комфорт 1014.7 953.8
18 10.01 штиль 0 4000 м мгла ясно +19.8 +13.4 67 +21 +21 комфорт 1015.5 953.9
21 10.01 штиль 0 4000 м мгла ясно +16.8 +13.8 82 +17 +17 1015.1 953.0
00 11.01 штиль 0 2000 м дымка 3/0
[Ci fib]
+17.2 +13.8 80 +17 +17 1014.7 952.8
03 11.01 штиль 0 2000 м мгла ясно +20.0 +14.8 72 +22 +26 комфорт 1017.5 955.8 +16.3 +29.0
06 11.01 ЮВ 2 4000 м мгла ясно +24.8 +14.5 53 +27 +41 жарко 1016.1 955.4
09 11.01 штиль 0 4000 м ясно +28.6 +12.1 36 +30 +42 жарко 1011.9 952.3
12 11.01 ЮВ 2 10 км ясно +27.0 +13.3 43 +29 +29 жарко 1012.5 952.5 +29.4
15 11.01 2 4000 м мгла 3/0
[Ci fib]
+23.0 +15.7 63 +27 +27 душно 1015.6 954.7
18 11.01 ЮВ 2 4000 м мгла 3/0
[Ci fib]
+21.6 +16.2 71 +25 +25 комфорт 1015.7 954.5
21 11.01 штиль 0 4000 м дымка 3/0
[Ci fib]
+20.0 +17.5 86 +23 +23 комфорт 1015.3 953.7
00 12.01 штиль 0 2000 м дымка 3/0
[Ci fib]
+19.0 +17.4 90 +20 +20 1014.4 952.7
03 12.01 штиль 0 2000 м дымка 3/0
[Ci fib]
+19.2 +17.6 90 +21 +25 комфорт 1017.6 955.9 +17.5 +29.4
06 12.01 штиль 0 4000 м мгла 3/0
[Ci fib]
+25.0 +16.2 58 +28 +45 жарко 1015.3 954.8
09 12.01 1 4000 м мгла 1/0
[Ci fib]
+28.0 +15.8 47 +31 +41 душно 1011.8 952.0
12 12.01 1 4000 м мгла 3/0
[Ci fib]
+26.4 +14.9 49 +29 +29 жарко 1012.4 952.4 +28.9
15 12.01 1 4000 м мгла 4/0
[Ci fib]
+23.2 +15.5 62 +27 +27 душно 1015.0 954.3
18 12.01 1 4000 м мгла 4/0
[Ci fib]
+21.4 +16.0 71 +25 +25 комфорт 1015.9 954.7
21 12.01 штиль 0 4000 м мгла 4/0
[Ci fib]
+19.8 +15.9 78 +22 +22 комфорт 1015.3 953.7
00 13.01 ЮВ 3 2000 м дымка 3/0
[Ci fib]
+18.6 +16.4 87 +20 +20 1015.2 953.4
03 13.01 штиль 0 2000 м дымка ясно +19.8 +16.3 80 +22 +26 комфорт 1018.4 956.7 +17.5 +28.9
06 13.01 штиль 0 4000 м мгла ясно +25.0 +15.1 54 +28 +45 жарко 1016.1 955.4
09 13.01 1 10 км 1/1 600 м
[Sc]
+29.2 +12.5 36 +30 +40 жарко 1012.2 952.8
12 13.01 ЮВ 2 10 км 3/0
[Ci fib]
+26.8 +12.2 40 +28 +28 жарко 1012.7 952.7 +29.6
15 13.01 ЮВ 2 4000 м мгла 3/0
[Ci fib]
+23.0 +14.2 58 +27 +27 душно 1015.3 954.4
18 13.01 штиль 0 4000 м мгла 3/0
[Ci fib]
+21.0 +15.5 71 +24 +24 комфорт 1015.4 954.0
21 13.01 штиль 0 4000 м мгла ясно +19.4 +15.2 77 +21 +21 комфорт 1014.8 953.2
00 14.01 штиль 0 2000 м дымка 3/0
[Ci fib]
+17.0 +15.0 88 +17 +17 1014.4 952.3
03 14.01 ЮВ 2 2000 м дымка 3/0
[Ci fib]
+19.6 +15.7 78 +22 +26 комфорт 1017.1 955.4 +15.7 +29.6
06 14.01 ЮВ 2 4000 м мгла ясно +25.8 +14.2 49 +28 +41 жарко 1015.2 954.9
09 14.01 ЮВ 2 4000 м ясно +28.6 +12.1 36 +30 +39 жарко 1012.2 952.6
12 14.01 ЮВ 2 10 км ясно +26.6 +12.8 42 +28 +28 жарко 1012.7 952.7 +29.5
15 14.01 штиль 0 4000 м мгла ясно +23.6 +13.0 51 +26 +26 жарко 1014.9 954.2
18 14.01 штиль 0 4000 м мгла ясно +19.8 +14.9 73 +22 +22 комфорт 1016.1 954.5
21 14.01 штиль 0 4000 м мгла ясно +18.6 +14.6 78 +19 +19 1015.5 953.7
00 15.01 штиль 0 2000 м дымка 3/0
[Ci fib]
+16.2 +13.8 86 +16 +16 1015.8 953.5
09 15.01 штиль 0 10 км 3/0
[Ci fib]
+29.2 +12.5 36 +30 +42 жарко 1012.0 952.6
12 15.01 штиль 0 10 км 3/0
[Ci fib]
+27.0 +12.5 41 +29 +29 жарко 1013.3 953.2 +30.1
15 15.01 СВ 2 4000 м мгла 3/0
[Ci fib]
+24.0 +13.9 53 +26 +26 жарко 1016.0 955.2
18 15.01 В 2 4000 м мгла 3/0
[Ci fib]
+21.4 +14.2 64 +24 +24 комфорт 1016.8 955.5
21 15.01 штиль 0 4000 м мгла 3/0
[Ci fib]
+18.0 +14.0 77 +18 +18 1016.1 954.1
00 16.01 штиль 0 4000 м дымка 4/0
[Ci fib]
+16.2 +14.2 88 +16 +16 1016.3 954.0
03 16.01 штиль 0 2000 м дымка 3/0
[Ci fib]
+17.6 +15.6 88 +18 +22 1018.2 956.0 +15.2 +30.1

 

Местоположение метеостанции Хайдарабад (Телингана, Индия): широта 17.45 долгота 78.47 высота над уровнем моря 545 м.

В архиве по умолчанию представлена погода в Хайдарабаде за последнюю неделю. Архивные данные за месяц целиком и за предыдущие месяцы, начиная с января 2011 года, Вы можете получить, выбрав интересующий диапазон дат из раскрывающегося списка и нажав кнопку "Ввод!".


*Определитесь, кто Вы:
робот инопланетянин человек

Внимание! Время в таблицах - всемирное. Для получения местного времени необходимо прибавить поправку, которая равна 5.5 ч.

Смотрите также архив погоды в соседних городах и на ближайших метеорологических станциях:

Погода в Медаке (Телингана, Индия) (70 км)
Погода в Махбубнагаре (Телингана, Индия) (93 км)
Погода в Налгонде (Телингана, Индия) (97 км)
Погода в Бидаре (Карнатака, Индия) (112 км)
Погода в Ханамконде (Телингана, Индия) (133 км)
Погода в Низамабаде (Телингана, Индия) (141 км)
Погода в Рентчайнтале (Андхра-Прадеш, Индия) (152 км)
Погода в Аджере (Махараштра, Индия) (159 км)
Погода в Гулбарге (Карнатака, Индия) (172 км)
Погода в Рамагундэме (Телингана, Индия) (178 км)

Пояснения к столбцам:

Ветер - указаны скорость ветра в м/с - средняя за 10 мин, порывы в срок и между сроками (в фигурных скобках) и направление, откуда дует ветер: С - северный, СВ - северо-восточный, В - восточный, ЮВ - юго-восточный, Ю - южный, ЮЗ - юго-западный, З - западный, СЗ - северо-западный.
Видимость - горизонтальная дальность видимости в метрах или километрах. При видимости от 1 до 10 км при отсутствии осадков обычно наблюдается дымка, при ухудшении видимости до 1 км и менее - туман. В сухую погоду видимость может ухудшаться дымом, пылью или мглою.
Явления - указаны атмосферные явления, наблюдавшиеся в срок или в последний час перед сроком; фигурными скобками обозначены явления, наблюдавшиеся между сроками (за 1-3 часа до срока); квадратными скобками обозначены град или гололедные отложения с указанием их диаметра в мм.
Облачность - указаны через наклонную черту общая и нижняя облачность в баллах и высота нижней границы облаков в метрах; квадратными скобками обозначены формы облаков: Ci - перистые, Cs - перисто-слоистые, Cc - перисто-кучевые, Ac - высококучевые, As - высокослоистые, Sc - слоисто-кучевые, Ns - слоисто-дождевые, Cu - кучевые, Cb - кучево-дождевые. Подробнее классификацию облаков см. в Атласе облаков (PDF).
T - Температура воздуха - температура, измеренная на высоте 2 м над землей.
Td - Температура точки росы - температура, при понижении до которой содержащийся в воздухе водяной пар достигнет насыщения.
f - Относительная влажность воздуха - влажноcть воздуха, измеренная на высоте 2 м над землей.
Te - Эффективная температура - температура, которую ощущает одетый по сезону человек в тени. Характеристика душности погоды. При расчете учитывается влияние влажности воздуха и скорости ветра на теплоощущения человека.
Tes - Эффективная температура на солнце - температура, которую ощущает человек, с поправкой на солнечный нагрев. Характеристика знойности погоды. Зависит от высоты солнца над горизонтом, облачности и скорости ветра. Ночью, в пасмурную погоду, а также при ветре 12 м/с и более поправка равна нулю.
P - Атмосферное давление - приведенное к уровню моря атмосферное давление.
Po - Атмосферное давление - измеренное на уровне метеостанции атмосферное давление.
Tmin - Минимальная температура - минимум температуры воздуха на высоте 2 м над землей.
Tmax - Максимальная температура - максимум температуры воздуха на высоте 2 м над землей.
R - Количество осадков - Количество выпавших осадков за период времени, мм. При наведении курсора мыши на число - период времени, за который выпало указанное количество осадков.
R24 - Количество осадков - Количество выпавших осадков за 24 часа, мм.
S - Снежный покров - Высота снежного покрова, см. При наведении курсора мыши на число - состояние снежного покрова и степень покрытия местности в баллах.